Miles City, MT

12:22 PM MST on January 22, 2018 (GMT -0700)
Wiley

Weather History for KMLS - December, 2012

Change the Weather History Date:

Friday, December 7, 2012

  Actual Average Record
Temperature  
Mean Temperature 30 °F 22 °F  
Max Temperature 36 °F 33 °F 57 °F (2015)
Min Temperature 24 °F 11 °F -36 °F (2013)
Degree Days  
Heating Degree Days 35 43  
Month to date heating degree days 174 294  
Since 1 July heating degree days 1775 2093  
Cooling Degree Days 0 0  
Month to date cooling degree days 0 0  
Year to date cooling degree days 1107 730  
Moisture  
Dew Point 29 °F    
Average Humidity 93    
Maximum Humidity 100    
Minimum Humidity 85    
Precipitation  
Precipitation 0.03 in 0.01 in 0.27 in (1958)
Month to date precipitation 0.03 0.06  
Year to date precipitation 5.99 12.21  
Sea Level Pressure  
Sea Level Pressure 29.88 in    
Wind  
Wind Speed 6 mph (South)    
Max Wind Speed 14 mph    
Max Gust Speed 15 mph    
Visibility 6 miles    
Events Snow    
T = Trace of Precipitation, MM = Missing Value Source: NWS Daily Summary

Daily Weather History Graph

Daily Weather History Graph

Search for Another Location

Airport or City:

Trip Planner

Search our weather history database for the weather conditions in past years. The results will help you decide how hot, cold, wet, or windy it might be!

Date:

Astronomy

Dec. 07, 2012 Rise Set
Actual Time 7:33 AM MST 4:16 PM MST
Civil Twilight 6:59 AM MST 4:51 PM MST
Nautical Twilight 6:21 AM MST 5:29 PM MST
Astronomical Twilight 5:44 AM MST 6:05 PM MST
Moon 12:36 AM MST (12/7) 12:32 PM MST (12/7)
Length of Visible Light 9h 52m
Length of Day
8h 42m
Last Quarter, 38% of the Moon is Illuminated
Dec 7
Last Quarter
Dec 13
New
Dec 19
First Quarter
Dec 28
Full
Jan 4
Last Quarter

Hourly Weather History & Observations

Time (MST) Temp. Windchill Dew Point Humidity Pressure Visibility Wind Dir Wind Speed Gust Speed Precip Events Conditions
12:07 AM 32.0 °F 28.7 °F 30.2 °F 93% 29.90 in 6.0 mi South 3.5 mph - 0.00 in Snow Light Snow
12:53 AM 32.0 °F 27.5 °F 30.9 °F 96% 29.95 in 10.0 mi South 4.6 mph - 0.00 in   Overcast
1:01 AM 30.2 °F 24.3 °F 30.2 °F 100% 29.89 in 10.0 mi South 5.8 mph - N/A   Overcast
1:36 AM 30.2 °F 24.3 °F 30.2 °F 100% 29.89 in 10.0 mi South 5.8 mph - N/A   Overcast
1:53 AM 30.0 °F 25.2 °F 28.9 °F 96% 29.95 in 2.5 mi South 4.6 mph - N/A   Mostly Cloudy
2:00 AM 30.2 °F 25.4 °F 28.4 °F 93% 29.89 in 1.2 mi South 4.6 mph - N/A   Mostly Cloudy
2:06 AM 30.2 °F 25.4 °F 30.2 °F 100% 29.89 in 3.0 mi SSW 4.6 mph - N/A   Mostly Cloudy
2:51 AM 30.2 °F 24.3 °F 28.4 °F 93% 29.89 in 10.0 mi South 5.8 mph - N/A   Scattered Clouds
2:53 AM 30.9 °F 25.2 °F 28.9 °F 92% 29.95 in 10.0 mi South 5.8 mph - N/A   Partly Cloudy
3:40 AM 30.2 °F 25.4 °F 28.4 °F 93% 29.88 in 10.0 mi South 4.6 mph - N/A   Mostly Cloudy
3:53 AM 30.0 °F 26.5 °F 28.0 °F 92% 29.94 in 9.0 mi SSE 3.5 mph - N/A   Overcast
4:44 AM 30.2 °F 24.3 °F 28.4 °F 93% 29.87 in 2.5 mi SSE 5.8 mph - N/A   Overcast
4:53 AM 28.9 °F 22.8 °F 28.0 °F 96% 29.94 in 1.5 mi SSE 5.8 mph - N/A   Overcast
5:02 AM 28.4 °F 23.3 °F 28.4 °F 100% 29.87 in 0.8 mi SSE 4.6 mph - N/A   Overcast
5:29 AM 28.4 °F 23.3 °F 26.6 °F 93% 29.87 in 2.0 mi South 4.6 mph - N/A   Overcast
5:43 AM 28.4 °F 24.6 °F 28.4 °F 100% 29.87 in 4.0 mi South 3.5 mph - N/A   Overcast
5:53 AM 30.0 °F 24.1 °F 28.0 °F 92% 29.94 in 8.0 mi South 5.8 mph - N/A   Overcast
6:37 AM 28.4 °F 21.2 °F 26.6 °F 93% 29.88 in 10.0 mi South 6.9 mph - N/A   Scattered Clouds
6:53 AM 28.9 °F 21.1 °F 27.0 °F 92% 29.94 in 10.0 mi South 8.1 mph - N/A   Partly Cloudy
7:53 AM 26.1 °F 17.6 °F 25.0 °F 96% 29.96 in 10.0 mi SSW 8.1 mph - N/A   Clear
8:53 AM 28.9 °F 21.9 °F 27.0 °F 92% 29.97 in 10.0 mi SSW 6.9 mph - N/A   Partly Cloudy
9:45 AM 28.4 °F 23.3 °F 28.4 °F 100% 29.89 in 10.0 mi SE 4.6 mph - N/A   Mostly Cloudy
9:53 AM 28.9 °F 23.9 °F 28.0 °F 96% 29.96 in 9.0 mi SE 4.6 mph - N/A   Mostly Cloudy
10:53 AM 30.9 °F 25.2 °F 28.9 °F 92% 29.95 in 10.0 mi SSE 5.8 mph - N/A   Overcast
11:43 AM 32.0 °F 24.2 °F 28.4 °F 87% 29.87 in 2.0 mi South 9.2 mph - 0.00 in Snow Light Snow
11:48 AM 30.2 °F 22.6 °F 28.4 °F 93% 29.87 in 0.8 mi South 8.1 mph - 0.00 in Snow Light Snow
11:53 AM 30.9 °F 24.3 °F 28.9 °F 92% 29.94 in 0.8 mi South 6.9 mph - 0.00 in Snow Light Snow
12:01 PM 30.2 °F 24.3 °F 28.4 °F 93% 29.86 in 2.0 mi SSE 5.8 mph - 0.01 in Snow Light Snow
12:10 PM 30.2 °F 25.4 °F 28.4 °F 93% 29.86 in 3.0 mi South 4.6 mph - 0.01 in Snow Light Snow
12:13 PM 30.2 °F 25.4 °F 28.4 °F 93% 29.86 in 1.5 mi South 4.6 mph - 0.01 in Snow Light Snow
12:23 PM 30.2 °F 25.4 °F 30.2 °F 100% 29.85 in 0.8 mi SSE 4.6 mph - 0.01 in Snow Light Snow
12:41 PM 32.0 °F 27.5 °F 30.2 °F 93% 29.85 in 2.0 mi SSE 4.6 mph - 0.01 in Snow Light Snow
12:49 PM 32.0 °F 27.5 °F 30.2 °F 93% 29.85 in 4.0 mi SSE 4.6 mph - 0.01 in Snow Light Snow
12:53 PM 32.0 °F 27.5 °F 30.0 °F 92% 29.91 in 3.0 mi SSE 4.6 mph - 0.01 in Snow Light Snow
1:01 PM 32.0 °F 27.5 °F 30.2 °F 93% 29.84 in 3.0 mi South 4.6 mph - 0.00 in Snow Light Snow
1:09 PM 32.0 °F 28.7 °F 30.2 °F 93% 29.84 in 2.5 mi SSE 3.5 mph - 0.00 in Snow Light Snow
1:31 PM 33.8 °F 29.6 °F 30.2 °F 87% 29.83 in 9.0 mi SE 4.6 mph - 0.00 in   Overcast
1:53 PM 34.0 °F - 30.9 °F 89% 29.90 in 4.0 mi Calm Calm - 0.00 in Snow Light Snow
2:00 PM 33.8 °F - 30.2 °F 87% 29.83 in 1.8 mi Calm Calm - 0.00 in Snow Light Snow
2:07 PM 33.8 °F - 32.0 °F 93% 29.83 in 1.5 mi Calm Calm - 0.01 in Snow Light Snow
2:18 PM 33.8 °F 30.8 °F 30.2 °F 87% 29.83 in 0.8 mi South 3.5 mph - 0.01 in Snow Light Snow
2:25 PM 33.8 °F 30.8 °F 30.2 °F 87% 29.83 in 2.0 mi SSE 3.5 mph - 0.02 in Snow Light Snow
2:33 PM 33.8 °F 30.8 °F 32.0 °F 93% 29.82 in 9.0 mi South 3.5 mph - 0.02 in   Overcast
2:46 PM 35.6 °F - 32.0 °F 87% 29.82 in 10.0 mi Calm Calm - 0.02 in   Mostly Cloudy
2:53 PM 34.0 °F 31.0 °F 32.0 °F 92% 29.89 in 10.0 mi South 3.5 mph - 0.02 in   Overcast
3:07 PM 35.6 °F 27.5 °F 32.0 °F 87% 29.84 in 10.0 mi North 11.5 mph - N/A   Overcast
3:48 PM 33.8 °F 28.6 °F 30.2 °F 87% 29.83 in 10.0 mi WSW 5.8 mph - N/A   Scattered Clouds
3:53 PM 33.1 °F 28.7 °F 30.0 °F 89% 29.90 in 10.0 mi WSW 4.6 mph - N/A   Scattered Clouds
4:53 PM 30.9 °F 24.3 °F 27.0 °F 85% 29.90 in 10.0 mi SW 6.9 mph - N/A   Clear
6:53 PM 26.1 °F 18.4 °F 24.1 °F 92% 29.88 in 10.0 mi SSE 6.9 mph - N/A   Clear
7:53 PM 25.0 °F 17.1 °F 23.0 °F 92% 29.88 in 10.0 mi SSE 6.9 mph - N/A   Partly Cloudy
8:53 PM 25.0 °F 14.8 °F 23.0 °F 92% 29.84 in 10.0 mi SSE 10.4 mph - N/A   Clear
9:53 PM 25.0 °F 15.5 °F 21.9 °F 88% 29.82 in 10.0 mi SSE 9.2 mph - N/A   Clear
10:53 PM 25.0 °F 15.5 °F 21.9 °F 88% 29.79 in 10.0 mi SSE 9.2 mph - N/A   Mostly Cloudy
11:53 PM 26.1 °F 16.2 °F 21.9 °F 84% 29.76 in 10.0 mi South 10.4 mph - N/A   Overcast